Time,TemperatureF,DewpointF,PressureIn,WindDirection,WindDirectionDegrees,WindSpeedMPH,WindSpeedGustMPH,Humidity,HourlyPrecipIn,Conditions,Clouds,dailyrainin,SoftwareType,DateUTC
2013-03-19 00:04:00,62.8,52.0,30.70,NNE,27,3.0,-999.0,67,-99.99,,,0.00,weatherlink.com 1.10,2013-03-19 05:04:00,
2013-03-19 00:13:00,62.3,52.0,30.71,NNE,25,3.0,-999.0,68,-99.99,,,0.00,weatherlink.com 1.10,2013-03-19 05:13:00,
2013-03-19 00:43:00,61.3,51.0,30.70,North,350,3.0,-999.0,69,-99.99,,,0.00,weatherlink.com 1.10,2013-03-19 05:43:00,
2013-03-19 01:04:00,60.8,51.0,30.71,North,360,0.0,-999.0,69,-99.99,,,0.00,weatherlink.com 1.10,2013-03-19 06:04:00,
2013-03-19 01:13:00,60.4,50.0,30.72,NNE,23,2.0,-999.0,69,-99.99,,,0.00,weatherlink.com 1.10,2013-03-19 06:13:00,
2013-03-19 01:28:00,60.2,50.0,30.72,NNE,19,3.0,-999.0,69,-99.99,,,0.00,weatherlink.com 1.10,2013-03-19 06:28:00,
2013-03-19 01:43:00,59.8,50.0,30.71,North,5,0.0,-999.0,70,-99.99,,,0.00,weatherlink.com 1.10,2013-03-19 06:43:00,
2013-03-19 02:04:00,59.4,50.0,30.71,NNE,27,0.0,-999.0,70,-99.99,,,0.00,weatherlink.com 1.10,2013-03-19 07:04:00,
2013-03-19 02:13:00,59.3,50.0,30.71,North,349,1.0,-999.0,70,-99.99,,,0.00,weatherlink.com 1.10,2013-03-19 07:13:00,
2013-03-19 02:28:00,59.5,49.0,30.72,NE,49,2.0,-999.0,69,-99.99,,,0.00,weatherlink.com 1.10,2013-03-19 07:28:00,
2013-03-19 02:43:00,59.5,49.0,30.71,NNE,17,4.0,-999.0,69,-99.99,,,0.00,weatherlink.com 1.10,2013-03-19 07:43:00,
2013-03-19 03:04:00,59.4,49.0,30.71,North,9,3.0,-999.0,69,-99.99,,,0.00,weatherlink.com 1.10,2013-03-19 08:04:00,
2013-03-19 03:13:00,59.2,49.0,30.70,NNE,24,2.0,-999.0,70,-99.99,,,0.00,weatherlink.com 1.10,2013-03-19 08:13:00,
2013-03-19 03:28:00,58.9,49.0,30.71,NNE,17,1.0,-999.0,71,-99.99,,,0.00,weatherlink.com 1.10,2013-03-19 08:28:00,
2013-03-19 03:43:00,58.6,50.0,30.71,NE,51,0.0,-999.0,73,-99.99,,,0.00,weatherlink.com 1.10,2013-03-19 08:43:00,
2013-03-19 04:04:00,58.3,50.0,30.70,ENE,67,0.0,-999.0,74,-99.99,,,0.00,weatherlink.com 1.10,2013-03-19 09:04:00,
2013-03-19 04:13:00,58.3,50.0,30.69,North,11,2.0,-999.0,75,-99.99,,,0.00,weatherlink.com 1.10,2013-03-19 09:13:00,
2013-03-19 04:28:00,58.4,51.0,30.69,ENE,75,5.0,-999.0,75,-99.99,,,0.00,weatherlink.com 1.10,2013-03-19 09:28:00,
2013-03-19 04:43:00,58.4,51.0,30.69,ENE,61,0.0,-999.0,76,-99.99,,,0.00,weatherlink.com 1.10,2013-03-19 09:43:00,
2013-03-19 05:04:00,58.2,51.0,30.69,East,88,0.0,-999.0,77,-99.99,,,0.00,weatherlink.com 1.10,2013-03-19 10:04:00,
2013-03-19 05:13:00,58.2,51.0,30.69,NNE,25,3.0,-999.0,78,-99.99,,,0.00,weatherlink.com 1.10,2013-03-19 10:13:00,
2013-03-19 05:28:00,58.1,52.0,30.69,East,80,3.0,-999.0,79,-99.99,,,0.00,weatherlink.com 1.10,2013-03-19 10:28:00,
2013-03-19 05:43:00,58.3,52.0,30.69,ESE,108,0.0,-999.0,79,-99.99,,,0.00,weatherlink.com 1.10,2013-03-19 10:43:00,
2013-03-19 06:04:00,58.3,52.0,30.69,ENE,77,1.0,-999.0,80,-99.99,,,0.00,weatherlink.com 1.10,2013-03-19 11:04:00,
2013-03-19 06:13:00,58.3,53.0,30.70,East,98,2.0,-999.0,81,-99.99,,,0.00,weatherlink.com 1.10,2013-03-19 11:13:00,
2013-03-19 06:28:00,58.2,52.0,30.70,ENE,63,3.0,-999.0,81,-99.99,,,0.00,weatherlink.com 1.10,2013-03-19 11:28:00,
2013-03-19 06:43:00,58.1,52.0,30.71,East,101,0.0,-999.0,81,-99.99,,,0.00,weatherlink.com 1.10,2013-03-19 11:43:00,
2013-03-19 07:04:00,57.9,52.0,30.72,ESE,114,0.0,-999.0,81,-99.99,,,0.00,weatherlink.com 1.10,2013-03-19 12:04:00,
2013-03-19 07:13:00,57.7,52.0,30.73,East,100,0.0,-999.0,81,-99.99,,,0.00,weatherlink.com 1.10,2013-03-19 12:13:00,
2013-03-19 07:28:00,57.6,52.0,30.73,East,84,1.0,-999.0,81,-99.99,,,0.00,weatherlink.com 1.10,2013-03-19 12:28:00,
2013-03-19 07:43:00,57.7,52.0,30.75,East,86,4.0,-999.0,80,-99.99,,,0.00,weatherlink.com 1.10,2013-03-19 12:43:00,
2013-03-19 08:05:00,58.0,51.0,30.75,ESE,105,3.0,-999.0,78,-99.99,,,0.00,weatherlink.com 1.10,2013-03-19 13:05:00,
2013-03-19 08:14:00,58.7,51.0,30.76,ESE,107,2.0,-999.0,75,-99.99,,,0.00,weatherlink.com 1.10,2013-03-19 13:14:00,
2013-03-19 08:29:00,59.5,50.0,30.76,East,96,6.0,-999.0,71,-99.99,,,0.00,weatherlink.com 1.10,2013-03-19 13:29:00,
2013-03-19 08:44:00,60.2,49.0,30.76,East,98,5.0,-999.0,66,-99.99,,,0.00,weatherlink.com 1.10,2013-03-19 13:44:00,
2013-03-19 09:14:00,61.8,47.0,30.76,SE,130,3.0,-999.0,59,-99.99,,,0.00,weatherlink.com 1.10,2013-03-19 14:14:00,
2013-03-19 09:29:00,62.8,47.0,30.77,ESE,108,3.0,-999.0,57,-99.99,,,0.00,weatherlink.com 1.10,2013-03-19 14:29:00,
2013-03-19 09:44:00,63.7,47.0,30.77,ESE,108,5.0,-999.0,54,-99.99,,,0.00,weatherlink.com 1.10,2013-03-19 14:44:00,
2013-03-19 10:05:00,65.2,47.0,30.78,SE,129,1.0,-999.0,53,-99.99,,,0.00,weatherlink.com 1.10,2013-03-19 15:05:00,
2013-03-19 10:14:00,66.3,47.0,30.78,East,98,0.0,-999.0,50,-99.99,,,0.00,weatherlink.com 1.10,2013-03-19 15:14:00,
2013-03-19 10:29:00,67.6,48.0,30.78,ESE,107,8.0,-999.0,49,-99.99,,,0.00,weatherlink.com 1.10,2013-03-19 15:29:00,
2013-03-19 10:44:00,68.7,49.0,30.78,East,80,1.0,-999.0,50,-99.99,,,0.00,weatherlink.com 1.10,2013-03-19 15:44:00,
2013-03-19 11:06:00,69.2,49.0,30.77,SE,142,3.0,-999.0,48,-99.99,,,0.00,weatherlink.com 1.10,2013-03-19 16:06:00,
2013-03-19 11:14:00,70.4,50.0,30.76,ESE,113,5.0,-999.0,48,-99.99,,,0.00,weatherlink.com 1.10,2013-03-19 16:14:00,
2013-03-19 11:29:00,71.4,51.0,30.75,ESE,105,4.0,-999.0,49,-99.99,,,0.00,weatherlink.com 1.10,2013-03-19 16:29:00,
2013-03-19 11:45:00,72.0,52.0,30.75,SE,124,1.0,-999.0,49,-99.99,,,0.00,weatherlink.com 1.10,2013-03-19 16:45:00,
2013-03-19 12:06:00,73.2,52.0,30.76,ESE,115,0.0,-999.0,48,-99.99,,,0.00,weatherlink.com 1.10,2013-03-19 17:06:00,
2013-03-19 12:15:00,73.7,53.0,30.76,SSW,197,1.0,-999.0,49,-99.99,,,0.00,weatherlink.com 1.10,2013-03-19 17:15:00,
2013-03-19 12:30:00,74.3,54.0,30.75,SE,145,3.0,-999.0,50,-99.99,,,0.00,weatherlink.com 1.10,2013-03-19 17:30:00,
2013-03-19 12:45:00,75.0,55.0,30.75,SE,137,5.0,-999.0,50,-99.99,,,0.00,weatherlink.com 1.10,2013-03-19 17:45:00,
2013-03-19 13:06:00,75.7,55.0,30.74,SE,142,2.0,-999.0,49,-99.99,,,0.00,weatherlink.com 1.10,2013-03-19 18:06:00,
2013-03-19 13:15:00,76.4,56.0,30.74,South,190,9.0,-999.0,50,-99.99,,,0.00,weatherlink.com 1.10,2013-03-19 18:15:00,
2013-03-19 13:30:00,77.1,58.0,30.73,SW,218,4.0,-999.0,51,-99.99,,,0.00,weatherlink.com 1.10,2013-03-19 18:30:00,
2013-03-19 13:45:00,77.6,57.0,30.72,South,183,0.0,-999.0,50,-99.99,,,0.00,weatherlink.com 1.10,2013-03-19 18:45:00,
2013-03-19 14:15:00,78.2,58.0,30.72,SW,217,9.0,-999.0,50,-99.99,,,0.00,weatherlink.com 1.10,2013-03-19 19:15:00,
2013-03-19 14:30:00,78.8,60.0,30.71,South,184,3.0,-999.0,52,-99.99,,,0.00,weatherlink.com 1.10,2013-03-19 19:30:00,
2013-03-19 14:45:00,79.6,61.0,30.70,SSE,151,1.0,-999.0,53,-99.99,,,0.00,weatherlink.com 1.10,2013-03-19 19:45:00,
2013-03-19 15:05:00,80.1,62.0,30.70,South,178,2.0,-999.0,55,-99.99,,,0.00,weatherlink.com 1.10,2013-03-19 20:05:00,
2013-03-19 15:14:00,79.9,62.0,30.69,SSW,200,8.0,-999.0,54,-99.99,,,0.00,weatherlink.com 1.10,2013-03-19 20:14:00,
2013-03-19 15:29:00,80.1,62.0,30.68,SE,144,5.0,-999.0,55,-99.99,,,0.00,weatherlink.com 1.10,2013-03-19 20:29:00,
2013-03-19 15:44:00,80.7,62.0,30.67,SW,230,7.0,-999.0,53,-99.99,,,0.00,weatherlink.com 1.10,2013-03-19 20:44:00,
2013-03-19 16:05:00,80.4,62.0,30.67,ESE,109,1.0,-999.0,53,-99.99,,,0.00,weatherlink.com 1.10,2013-03-19 21:05:00,
2013-03-19 16:14:00,81.0,62.0,30.65,ESE,106,0.0,-999.0,52,-99.99,,,0.00,weatherlink.com 1.10,2013-03-19 21:14:00,
2013-03-19 16:29:00,79.6,61.0,30.65,ESE,107,0.0,-999.0,54,-99.99,,,0.00,weatherlink.com 1.10,2013-03-19 21:29:00,
2013-03-19 16:45:00,80.8,62.0,30.65,South,191,3.0,-999.0,53,-99.99,,,0.00,weatherlink.com 1.10,2013-03-19 21:45:00,
2013-03-19 17:06:00,79.5,61.0,30.64,South,188,0.0,-999.0,54,-99.99,,,0.00,weatherlink.com 1.10,2013-03-19 22:06:00,
2013-03-19 17:15:00,79.9,62.0,30.64,SSW,198,1.0,-999.0,54,-99.99,,,0.00,weatherlink.com 1.10,2013-03-19 22:15:00,
2013-03-19 17:30:00,80.0,61.0,30.64,WSW,238,2.0,-999.0,53,-99.99,,,0.00,weatherlink.com 1.10,2013-03-19 22:30:00,
2013-03-19 18:06:00,79.5,61.0,30.64,ESE,111,0.0,-999.0,54,-99.99,,,0.00,weatherlink.com 1.10,2013-03-19 23:06:00,
2013-03-19 18:15:00,79.3,62.0,30.64,ESE,111,2.0,-999.0,55,-99.99,,,0.00,weatherlink.com 1.10,2013-03-19 23:15:00,
2013-03-19 18:30:00,79.0,61.0,30.64,ESE,112,0.0,-999.0,55,-99.99,,,0.00,weatherlink.com 1.10,2013-03-19 23:30:00,
2013-03-19 18:45:00,78.3,60.0,30.64,East,91,0.0,-999.0,54,-99.99,,,0.00,weatherlink.com 1.10,2013-03-19 23:45:00,
2013-03-19 19:06:00,77.8,61.0,30.66,ENE,72,1.0,-999.0,57,-99.99,,,0.00,weatherlink.com 1.10,2013-03-20 00:06:00,
2013-03-19 19:15:00,77.0,61.0,30.66,East,92,0.0,-999.0,59,-99.99,,,0.00,weatherlink.com 1.10,2013-03-20 00:15:00,
2013-03-19 19:30:00,76.1,62.0,30.67,ESE,106,0.0,-999.0,61,-99.99,,,0.00,weatherlink.com 1.10,2013-03-20 00:30:00,
2013-03-19 19:45:00,75.5,61.0,30.67,East,87,5.0,-999.0,62,-99.99,,,0.00,weatherlink.com 1.10,2013-03-20 00:45:00,
2013-03-19 20:05:00,75.1,62.0,30.68,ENE,76,6.0,-999.0,63,-99.99,,,0.00,weatherlink.com 1.10,2013-03-20 01:05:00,
2013-03-19 20:14:00,74.7,62.0,30.68,East,85,0.0,-999.0,64,-99.99,,,0.00,weatherlink.com 1.10,2013-03-20 01:14:00,
2013-03-19 20:29:00,74.3,62.0,30.68,East,85,0.0,-999.0,66,-99.99,,,0.00,weatherlink.com 1.10,2013-03-20 01:29:00,
2013-03-19 20:44:00,73.8,62.0,30.68,East,82,0.0,-999.0,67,-99.99,,,0.00,weatherlink.com 1.10,2013-03-20 01:44:00,
2013-03-19 21:06:00,72.9,62.0,30.69,ENE,76,0.0,-999.0,69,-99.99,,,0.00,weatherlink.com 1.10,2013-03-20 02:06:00,
2013-03-19 21:15:00,72.4,62.0,30.70,ENE,66,0.0,-999.0,70,-99.99,,,0.00,weatherlink.com 1.10,2013-03-20 02:15:00,
2013-03-19 21:30:00,72.1,62.0,30.69,ESE,109,3.0,-999.0,71,-99.99,,,0.00,weatherlink.com 1.10,2013-03-20 02:30:00,
2013-03-19 21:45:00,71.9,62.0,30.69,ESE,105,0.0,-999.0,71,-99.99,,,0.00,weatherlink.com 1.10,2013-03-20 02:45:00,
2013-03-19 22:06:00,71.4,62.0,30.71,East,91,1.0,-999.0,72,-99.99,,,0.00,weatherlink.com 1.10,2013-03-20 03:06:00,
2013-03-19 22:15:00,71.1,62.0,30.71,NE,54,2.0,-999.0,73,-99.99,,,0.00,weatherlink.com 1.10,2013-03-20 03:15:00,
2013-03-19 22:30:00,70.9,62.0,30.71,ESE,115,3.0,-999.0,74,-99.99,,,0.00,weatherlink.com 1.10,2013-03-20 03:30:00,
2013-03-19 22:45:00,70.6,62.0,30.72,East,86,0.0,-999.0,75,-99.99,,,0.00,weatherlink.com 1.10,2013-03-20 03:45:00,
2013-03-19 23:06:00,70.1,59.0,30.73,NE,37,0.0,-999.0,69,-99.99,,,0.00,weatherlink.com 1.10,2013-03-20 04:06:00,
2013-03-19 23:15:00,69.9,56.0,30.74,East,86,0.0,-999.0,62,-99.99,,,0.00,weatherlink.com 1.10,2013-03-20 04:15:00,
2013-03-19 23:30:00,69.7,55.0,30.74,NE,52,0.0,-999.0,59,-99.99,,,0.00,weatherlink.com 1.10,2013-03-20 04:30:00,
2013-03-19 23:45:00,69.5,53.0,30.74,NE,40,0.0,-999.0,56,-99.99,,,0.00,weatherlink.com 1.10,2013-03-20 04:45:00,